This is the latest recevied weather packets stored in our database for station/object LY3FF-10. If no packets are shown the sender has not sent any weather packets the latest 10 day(s).
| Time | Temp. | Humidity | Pressure | Rain* | Wind** | Luminosity | Snow |
|---|---|---|---|---|---|---|---|
| 1787841106 | 20.56° C | 57% | 1005.7 hPa | - | - | - | - |
| 1787840290 | 21.11° C | 57% | 1005.8 hPa | - | - | - | - |
| 1787839450 | 22.78° C | 58% | 1005.9 hPa | - | - | - | - |
| 1787838632 | 21.11° C | 57% | 1005.9 hPa | - | - | - | - |
| 1787837895 | 22.78° C | 57% | 1006 hPa | - | - | - | - |
| 1787837160 | 20.56° C | 57% | 1006 hPa | - | - | - | - |
| 1787836384 | 24.44° C | 56% | 1005.9 hPa | - | - | - | - |
| 1787835555 | 24.44° C | 55% | 1005.8 hPa | - | - | - | - |
| 1787834784 | 25.56° C | 55% | 1005.9 hPa | - | - | - | - |
| 1787834055 | 28.33° C | 54% | 1005.9 hPa | - | - | - | - |
| 1787833226 | 23.33° C | 52% | 1005.8 hPa | - | - | - | - |
| 1787832510 | 22.78° C | 55% | 1005.8 hPa | - | - | - | - |
| 1787831644 | 21.11° C | 55% | 1005.9 hPa | - | - | - | - |
| 1787830925 | 28.89° C | 57% | 1005.9 hPa | - | - | - | - |
| 1787830104 | 22.22° C | 56% | 1005.9 hPa | - | - | - | - |
| 1787829230 | 25.56° C | 58% | 1006 hPa | - | - | - | - |
| 1787828455 | 21.11° C | 58% | 1006 hPa | - | - | - | - |
| 1787827670 | 35° C | 57% | 1005.9 hPa | - | - | - | - |
| 1787826810 | 33.33° C | 58% | 1006 hPa | - | - | - | - |
| 1787826065 | 22.22° C | 58% | 1006.1 hPa | - | - | - | - |
| 1787825305 | 28.89° C | 60% | 1006.1 hPa | - | - | - | - |
| 1787824460 | 30.56° C | 60% | 1006.2 hPa | - | - | - | - |
| 1787823632 | 21.11° C | 61% | 1006.2 hPa | - | - | - | - |
| 1787822910 | 29.44° C | 62% | 1006.2 hPa | - | - | - | - |
| 1787822150 | 22.78° C | 64% | 1006.2 hPa | - | - | - | - |
* Rain since midnight (hover to see other rain measurements)
** Current wind speed in m/s (hover to see current wind gust speed)